SCP
0 0 -0 -0 -0 -0 0 0 0 0 0 0 0 0 0 0 0 0 0 0 0 0 -0 -0 -0 -0 -0 -0 -0 -0 0 -0 -0 -0 0 0 0 0 0 0 0 0 0 0
0 0 -0 -0 -0 0 0 0 0 0 0 0 0 0 0 0 0 0 0 0 0 0 0 0 -0 -0 -0 -0 -0 -0 -0 -0 -0 0 0 0 0 0 0 0 0 0 0 0
0 0 -0 -0 -0 0 0 0 0 0 0 0 0 0 0 0 0 0 0 0 0 -0 -0 -0 0 -0 -0 -0 -0 -0 -0 -0 -0 -0 0 0 0 0 0 0 0 0 0 0
0 0 0 -0 -0 -0 0 0 0 0 0 0 0 0 0 0 0 0 0 0 0 0 0 0 -0 -0 -0 -0 0 -0 -0 -0 -0 -0 -0 -0 -0 0 0 0 0 0 0 0
0 0 0 0 -0 0 0 0 0 0 0 0 0 0 0 0 0 0 0 0 0 0 0 0 0 0 0 -0 -0 -0 -0 -0 -0 -0 0 -0 -0 -0 -0 -0 -0 0 0 0
0 0 0 0 0 0 0 0 0 0 0 0 0 0 0 0 0 0 0 0 0 0 0 0 0 0 0 0 0 0 0 0 0 -0 0 0 -0 0 0 0 0 0 0 0
0 0 0 0 0 0 0 0 0 0 0 0 0 0 0 0 0 0 0 0 0 0 0 0 0 0 0 0 0 0 0 0 0 0 0 0 0 0 0 0 0 0 0 0
0 0 0 0 0 0 0 0 0 0 0 0 0 0 0 0 0 0 0 0 0 0 0 0 0 0 0 0 0 0 0 0 0 0 0 0 0 0 0 0 0 0 0 0
0 0 0 0 0 0 0 0 0 0 0 0 0 0 0 0 0 0 0 0 0 0 0 0 0 0 0 0 0 0 0 0 0 0 0 0 0 0 0 0 0 0 0 0
0 0 0 0 0 0 0 0 0 0 0 0 0 0 0 0 0 0 0 0 0 0 0 0 0 0 0 0 0 0 0 0 0 0 0 0 0 0 0 0 0 -0 0 0
0 0 0 0 0 0 0 0 0 0 0 0 0 0 0 0 0 0 0 0 0 0 0 0 0 0 0 0 0 0 0 0 0 0 0 0 0 0 0 0 0 0 0 0
0 0 0 0 0 0 0 0 0 0 0 0 0 0 0 0 0 0 0 0 0 0 0 0 0 0 0 0 0 0 0 0 0 0 0 0 0 0 0 0 0 0 0 0
0 0 0 0 0 0 0 0 0 0 0 0 0 0 0 0 0 0 0 0 0 0 0 0 0 0 0 0 0 0 0 0 0 0 0 0 0 0 0 0 0 0 0 0
0 0 0 0 0 0 0 0 0 0 0 0 0 0 0 0 0 0 0 0 0 0 0 0 0 0 0 0 0 0 0 0 0 0 0 0 0 0 0 0 0 0 0 0
0 0 0 0 0 0 0 0 0 0 0 0 0 0 0 0 0 0 0 0 0 0 0 0 0 0 0 0 0 0 0 0 0 0 0 0 0 0 0 0 0 0 0 0
0 0 0 0 0 0 0 0 0 0 0 0 0 0 0 0 0 0 0 0 0 0 0 0 0 0 0 0 0 0 0 0 0 0 0 0 0 0 0 0 0 0 0 0
0 0 0 0 0 0 0 0 0 0 0 0 0 0 0 0 0 0 0 0 0 0 0 0 0 0 0 0 0 0 0 0 0 0 0 0 0 0 0 0 0 0 0 0
0 0 0 0 0 0 0 0 0 0 0 0 0 0 0 0 0 0 0 0 0 0 0 0 0 0 0 0 0 0 0 0 0 0 0 0 0 0 0 0 0 0 0 0
0 0 0 0 0 0 0 0 0 0 0 0 0 0 0 0 0 0 0 0 0 0 0 0 0 0 0 0 0 0 0 0 0 0 0 0 0 0 0 0 0 0 0 0
0 0 0 0 0 0 0 0 0 0 0 0 0 0 0 0 0 0 0 0 0 0 0 0 0 0 0 0 0 0 0 -0 0 0 0 0 0 0 0 0 0 0 0 0
0 0 0 0 0 0 0 0 0 0 0 0 0 0 0 0 0 0 0 0 0 0 0 0 0 0 0 0 0 0 0 0 0 0 0 0 0 0 0 0 0 0 0 0
0 0 0 0 0 0 0 0 0 0 0 0 0 0 0 0 0 0 0 0 0 0 0 0 0 0 0 0 0 0 0 0 0 0 0 0 0 0 0 0 0 0 0 0
0 0 0 0 0 0 0 0 0 0 0 0 0 0 0 0 0 0 0 0 0 0 0 0 0 0 0 0 -0 0 0 0 0 0 0 0 0 0 0 0 0 0 0 0
0 0 0 0 0 0 0 0 0 0 0 0 0 0 0 0 0 0 0 0 0 0 0 0 0 0 0 -0 -0 0 0 0 0 0 0 0 0 0 0 0 0 0 0 0
0 0 0 0 0 0 0 0 0 0 0 0 0 0 0 0 0 0 0 0 0 0 0 0 0 0 0 0 0 0 0 0 0 0 0 0 0 0 0 0 0 0 0 0
0 0 0 0 0 0 0 0 0 0 0 0 0 0 0 0 0 0 0 0 0 0 0 0 0 0 0 0 0 0 0 0 0 0 0 0 0 0 0 0 0 0 0 0
0 0 0 0 0 0 0 0 0 0 0 0 0 0 0 0 0 0 0 0 0 0 0 0 0 0 0 0 0 0 0 0 0 0 0 0 0 0 0 0 0 0 0 0
Wind_Speed_500mb
31 34 36 41 44 42 33 9 6 29 12 8 8 5 2 3 4 5 5 4 5 5 9 8 6 2 3 6 3 4 5 7 5 5 3 4 5 4 7 8 7 1 5 12
30 33 35 38 41 43 34 8 6 16 15 6 3 2 4 3 2 4 5 5 6 5 5 7 5 3 4 12 7 5 1 4 5 11 7 5 5 7 8 9 5 10 9 11
32 33 33 34 37 38 33 11 6 10 13 11 9 8 4 5 6 5 6 6 3 5 5 7 1 5 7 10 7 9 5 4 7 10 7 6 5 6 7 8 6 7 13 8
31 33 33 33 31 30 23 11 3 4 5 10 5 4 5 4 5 4 6 3 9 11 3 4 2 1 6 8 9 8 6 1 3 7 10 5 7 11 13 18 15 15 7 16
29 31 32 33 31 26 14 10 7 4 4 2 3 6 3 6 3 6 5 4 8 9 11 15 12 8 5 3 4 4 6 1 3 7 4 4 11 19 18 16 12 21 27 32
27 29 31 31 28 25 10 9 8 5 4 4 4 4 3 5 2 4 5 3 2 4 6 10 6 7 16 20 16 9 4 4 6 8 9 14 14 12 17 8 10 17 23 17
23 26 27 26 23 18 13 11 7 3 5 2 6 1 1 2 2 4 7 6 6 8 3 4 2 3 7 6 5 11 13 14 7 6 9 5 11 6 7 13 8 10 17 18
21 22 23 23 22 17 13 9 5 4 4 7 5 6 5 4 1 1 3 3 2 4 7 7 5 5 4 4 9 9 9 5 2 5 6 12 3 3 6 6 3 4 11 13
21 21 22 16 18 20 18 11 6 3 1 8 5 5 7 6 3 7 6 6 6 3 7 4 4 7 6 5 4 9 6 8 5 0 2 9 3 3 2 4 6 4 13 12
26 24 25 19 17 19 21 13 10 6 7 7 10 7 7 9 6 4 4 4 5 8 5 4 7 7 2 5 10 10 7 5 11 7 5 15 9 8 1 1 5 7 1 3
35 30 29 27 21 19 21 17 18 13 9 16 15 15 12 10 9 7 7 4 4 5 3 5 5 5 5 2 7 9 11 12 8 6 7 15 7 2 5 8 15 12 13 22
46 41 37 35 27 25 23 26 20 16 21 15 12 20 26 25 18 9 18 4 6 12 6 3 4 5 0 3 6 3 5 10 9 15 11 10 5 15 22 19 13 22 22 26
52 56 47 44 38 34 31 29 18 17 23 38 41 37 42 40 34 27 10 8 12 10 10 11 4 8 7 6 10 4 7 11 5 2 9 18 24 39 36 32 24 32 38 33
56 47 54 53 45 42 39 33 23 26 9 9 10 9 16 17 27 40 44 43 18 14 15 10 5 5 15 6 6 8 8 12 7 10 22 33 26 21 27 31 39 39 43 43
59 48 43 63 52 44 41 35 33 33 27 6 10 16 24 24 21 23 28 33 35 23 11 6 6 6 3 5 2 7 18 14 9 21 35 31 35 35 49 57 56 51 42 39
46 55 48 61 56 49 39 21 42 44 48 11 3 13 23 22 20 18 14 20 26 21 13 10 11 15 14 7 7 10 29 44 52 40 31 37 49 47 34 34 34 32 37 37
47 51 47 51 62 57 53 16 11 39 47 5 6 8 8 17 17 16 19 22 15 15 8 9 8 14 21 4 12 7 21 23 25 27 24 21 17 28 23 24 25 23 23 25
43 43 49 43 54 62 63 51 23 29 50 15 5 4 6 14 9 7 11 9 11 10 6 4 6 4 7 8 15 12 11 17 16 4 28 37 34 25 21 22 24 23 23 23
36 35 36 56 51 40 40 46 36 42 24 13 10 7 7 17 8 7 6 6 3 4 4 6 9 5 11 12 11 11 13 13 23 26 21 12 14 17 19 18 18 20 20 19
29 29 25 12 19 25 46 34 26 18 20 15 9 11 5 16 10 7 9 4 3 3 5 5 5 7 30 25 12 1 9 13 15 12 10 9 9 16 21 25 24 27 25 26
49 29 13 30 53 33 18 11 10 11 5 14 17 28 9 13 6 5 8 5 4 3 7 6 3 6 7 13 8 2 2 7 14 17 18 18 22 27 30 32 34 34 36 43
38 24 40 38 10 5 6 7 8 7 10 16 18 13 13 13 10 7 9 5 4 7 9 3 6 7 10 16 12 14 7 2 9 15 24 29 35 38 41 47 50 51 51 52
40 14 19 16 10 4 11 15 7 6 18 19 21 8 13 9 6 6 6 7 9 7 3 6 8 9 13 21 26 22 13 17 21 21 24 31 41 46 51 56 57 58 60 62
22 17 9 10 11 11 10 8 9 12 22 44 43 14 10 9 4 6 7 4 2 4 5 10 6 13 14 20 35 29 26 29 26 28 38 49 50 58 60 59 60 60 64 65
11 14 12 10 7 5 10 14 26 25 56 56 25 11 6 5 6 5 5 3 7 9 9 6 4 9 10 14 23 40 46 45 50 56 64 70 71 73 78 73 69 69 71 70
11 10 9 14 17 7 14 22 36 48 55 37 15 7 5 3 8 6 9 9 12 8 7 19 3 26 23 28 34 36 43 50 59 67 70 69 69 72 74 73 73 75 73 72
8 3 6 11 14 21 31 43 41 56 40 6 9 8 12 7 6 8 6 10 7 13 20 9 30 39 46 43 44 46 50 55 61 62 61 64 65 69 72 76 75 73 71 72
Wind_Direction_500mb
332 339 344 346 352 357 0 1 18 357 357 40 49 80 67 124 72 32 35 34 5 12 0 34 59 67 187 343 309 37 338 116 143 192 256 214 176 176 141 121 230 71 139 276
325 333 339 344 351 354 358 360 354 355 4 93 37 188 110 109 97 86 53 34 35 11 16 350 14 65 38 11 38 109 237 25 44 353 0 356 215 197 143 114 97 202 146 264
317 325 333 341 347 352 352 350 10 22 46 63 127 144 195 151 163 144 140 147 90 22 33 15 262 345 353 13 64 53 53 100 160 189 204 151 227 221 182 144 139 189 226 277
310 317 324 332 342 349 355 13 86 62 330 5 27 31 176 164 180 211 187 138 152 146 110 11 83 14 343 5 7 27 70 343 39 267 252 267 253 229 194 194 198 195 216 213
301 309 321 329 339 348 359 8 4 22 83 43 42 355 256 213 294 156 269 191 197 180 169 170 176 152 168 181 18 48 4 224 89 294 18 204 264 248 232 232 242 259 265 270
295 304 313 323 333 350 9 22 10 352 0 55 54 270 261 264 30 304 320 240 48 294 260 188 200 208 168 168 156 154 95 86 28 292 344 306 281 229 207 193 205 207 242 257
287 301 312 326 330 342 3 11 349 336 276 149 203 205 37 315 327 324 338 349 341 348 13 324 317 293 290 233 323 171 148 141 141 248 5 343 251 308 225 211 256 245 292 279
285 289 306 321 331 335 326 341 4 320 283 244 257 198 182 147 249 278 257 223 231 312 346 1 5 349 40 58 11 336 337 84 94 156 196 286 150 164 147 148 299 331 270 298
291 275 290 317 326 335 327 294 304 279 297 249 245 183 197 184 217 321 203 192 201 149 76 57 252 243 237 196 107 61 81 26 90 45 204 255 352 356 227 132 276 307 134 144
271 274 272 286 304 322 334 300 278 250 265 255 211 213 192 177 164 181 267 196 163 168 124 167 214 260 222 222 185 163 137 146 187 209 281 289 264 281 271 305 274 204 271 171
260 262 257 267 273 292 304 307 278 263 259 268 245 236 222 193 195 157 156 84 227 73 162 169 228 208 242 260 170 186 172 155 193 140 191 267 219 231 200 228 182 215 270 300
253 254 254 251 256 268 282 288 275 270 254 266 258 242 240 240 237 241 193 237 171 191 102 198 136 236 173 189 270 47 234 192 185 190 215 247 237 254 284 265 244 300 294 317
250 251 247 249 248 256 266 280 268 251 270 280 269 266 256 244 234 221 222 221 212 203 204 168 188 233 134 207 240 219 241 182 221 99 273 244 284 300 290 267 276 305 301 305
246 253 245 241 242 247 254 262 260 228 252 272 284 262 246 243 238 237 241 239 228 237 209 202 189 222 193 216 229 200 220 153 218 256 278 302 300 306 333 313 314 311 299 291
242 249 257 245 234 240 249 250 241 225 208 243 275 276 268 255 245 241 239 236 231 214 186 174 212 209 175 247 306 231 202 206 211 259 277 282 289 307 310 308 305 300 290 289
257 250 253 241 234 231 227 223 237 223 216 248 258 257 241 230 222 222 227 214 219 213 192 199 201 188 187 233 230 239 235 246 254 269 288 300 299 309 317 311 310 303 292 289
257 251 249 259 233 227 202 206 234 200 198 224 258 254 218 205 203 200 208 205 209 208 196 218 199 206 194 237 246 205 261 271 285 303 303 301 307 314 314 320 323 317 300 290
263 258 244 265 227 216 209 217 191 182 186 192 220 239 198 174 159 146 171 172 186 213 204 193 206 221 223 251 269 276 313 318 311 296 302 294 292 296 300 302 298 292 293 297
264 263 243 209 194 202 203 201 182 180 189 190 198 184 195 173 138 130 141 172 193 186 226 210 176 194 226 237 249 293 329 337 320 327 321 308 290 295 305 304 299 299 304 303
271 214 176 190 171 171 176 161 171 181 199 212 218 191 161 166 144 139 131 162 206 219 226 193 222 250 260 263 270 359 3 359 2 356 341 342 315 303 300 300 302 302 300 298
193 189 157 145 156 154 176 155 167 172 211 209 194 185 145 178 128 143 212 176 185 168 251 204 254 281 254 240 180 310 26 35 26 18 0 333 316 304 299 300 297 294 298 304
204 187 136 149 171 141 172 182 160 191 221 182 165 155 137 137 141 119 173 169 90 225 144 135 261 245 258 187 184 159 160 23 337 315 305 303 299 299 297 296 299 301 302 301
175 146 148 168 171 154 204 188 224 171 164 173 155 134 135 126 122 131 130 168 213 141 185 229 227 257 243 207 196 207 222 247 268 291 308 314 309 304 297 295 294 293 291 289
191 154 134 194 192 221 198 189 164 151 150 153 144 123 136 135 112 152 154 152 198 199 226 234 245 262 243 222 213 236 250 267 277 287 306 304 302 302 298 297 298 296 294 293
141 155 194 198 210 184 208 180 137 142 149 144 122 84 112 137 129 196 131 125 215 215 227 225 110 46 1 309 272 258 269 284 294 299 299 298 295 290 290 293 300 297 292 294
126 151 153 148 154 157 152 153 134 142 139 128 118 118 137 173 146 165 196 172 221 243 213 157 27 336 338 326 314 296 289 292 295 293 291 289 290 293 295 294 290 289 292 294
97 72 145 178 145 151 145 145 147 154 148 145 131 106 194 108 104 196 211 209 219 222 183 277 316 319 318 310 304 301 297 296 296 297 298 297 298 300 299 293 292 295 295 293
Wind_Speed_850mb
31 34 36 41 44 42 33 9 6 29 12 8 8 5 2 3 4 5 5 4 5 5 9 8 6 2 3 6 3 4 5 7 5 5 3 4 5 4 7 8 7 1 5 12
30 33 35 38 41 43 34 8 6 16 15 6 3 2 4 3 2 4 5 5 6 5 5 7 5 3 4 12 7 5 1 4 5 11 7 5 5 7 8 9 5 10 9 11
32 33 33 34 37 38 33 11 6 10 13 11 9 8 4 5 6 5 6 6 3 5 5 7 1 5 7 10 7 9 5 4 7 10 7 6 5 6 7 8 6 7 13 8
31 33 33 33 31 30 23 11 3 4 5 10 5 4 5 4 5 4 6 3 9 11 3 4 2 1 6 8 9 8 6 1 3 7 10 5 7 11 13 18 15 15 7 16
29 31 32 33 31 26 14 10 7 4 4 2 3 6 3 6 3 6 5 4 8 9 11 15 12 8 5 3 4 4 6 1 3 7 4 4 11 19 18 16 12 21 27 32
27 29 31 31 28 25 10 9 8 5 4 4 4 4 3 5 2 4 5 3 2 4 6 10 6 7 16 20 16 9 4 4 6 8 9 14 14 12 17 8 10 17 23 17
23 26 27 26 23 18 13 11 7 3 5 2 6 1 1 2 2 4 7 6 6 8 3 4 2 3 7 6 5 11 13 14 7 6 9 5 11 6 7 13 8 10 17 18
21 22 23 23 22 17 13 9 5 4 4 7 5 6 5 4 1 1 3 3 2 4 7 7 5 5 4 4 9 9 9 5 2 5 6 12 3 3 6 6 3 4 11 13
21 21 22 16 18 20 18 11 6 3 1 8 5 5 7 6 3 7 6 6 6 3 7 4 4 7 6 5 4 9 6 8 5 0 2 9 3 3 2 4 6 4 13 12
26 24 25 19 17 19 21 13 10 6 7 7 10 7 7 9 6 4 4 4 5 8 5 4 7 7 2 5 10 10 7 5 11 7 5 15 9 8 1 1 5 7 1 3
35 30 29 27 21 19 21 17 18 13 9 16 15 15 12 10 9 7 7 4 4 5 3 5 5 5 5 2 7 9 11 12 8 6 7 15 7 2 5 8 15 12 13 22
46 41 37 35 27 25 23 26 20 16 21 15 12 20 26 25 18 9 18 4 6 12 6 3 4 5 0 3 6 3 5 10 9 15 11 10 5 15 22 19 13 22 22 26
52 56 47 44 38 34 31 29 18 17 23 38 41 37 42 40 34 27 10 8 12 10 10 11 4 8 7 6 10 4 7 11 5 2 9 18 24 39 36 32 24 32 38 33
56 47 54 53 45 42 39 33 23 26 9 9 10 9 16 17 27 40 44 43 18 14 15 10 5 5 15 6 6 8 8 12 7 10 22 33 26 21 27 31 39 39 43 43
59 48 43 63 52 44 41 35 33 33 27 6 10 16 24 24 21 23 28 33 35 23 11 6 6 6 3 5 2 7 18 14 9 21 35 31 35 35 49 57 56 51 42 39
46 55 48 61 56 49 39 21 42 44 48 11 3 13 23 22 20 18 14 20 26 21 13 10 11 15 14 7 7 10 29 44 52 40 31 37 49 47 34 34 34 32 37 37
47 51 47 51 62 57 53 16 11 39 47 5 6 8 8 17 17 16 19 22 15 15 8 9 8 14 21 4 12 7 21 23 25 27 24 21 17 28 23 24 25 23 23 25
43 43 49 43 54 62 63 51 23 29 50 15 5 4 6 14 9 7 11 9 11 10 6 4 6 4 7 8 15 12 11 17 16 4 28 37 34 25 21 22 24 23 23 23
36 35 36 56 51 40 40 46 36 42 24 13 10 7 7 17 8 7 6 6 3 4 4 6 9 5 11 12 11 11 13 13 23 26 21 12 14 17 19 18 18 20 20 19
29 29 25 12 19 25 46 34 26 18 20 15 9 11 5 16 10 7 9 4 3 3 5 5 5 7 30 25 12 1 9 13 15 12 10 9 9 16 21 25 24 27 25 26
49 29 13 30 53 33 18 11 10 11 5 14 17 28 9 13 6 5 8 5 4 3 7 6 3 6 7 13 8 2 2 7 14 17 18 18 22 27 30 32 34 34 36 43
38 24 40 38 10 5 6 7 8 7 10 16 18 13 13 13 10 7 9 5 4 7 9 3 6 7 10 16 12 14 7 2 9 15 24 29 35 38 41 47 50 51 51 52
40 14 19 16 10 4 11 15 7 6 18 19 21 8 13 9 6 6 6 7 9 7 3 6 8 9 13 21 26 22 13 17 21 21 24 31 41 46 51 56 57 58 60 62
22 17 9 10 11 11 10 8 9 12 22 44 43 14 10 9 4 6 7 4 2 4 5 10 6 13 14 20 35 29 26 29 26 28 38 49 50 58 60 59 60 60 64 65
11 14 12 10 7 5 10 14 26 25 56 56 25 11 6 5 6 5 5 3 7 9 9 6 4 9 10 14 23 40 46 45 50 56 64 70 71 73 78 73 69 69 71 70
11 10 9 14 17 7 14 22 36 48 55 37 15 7 5 3 8 6 9 9 12 8 7 19 3 26 23 28 34 36 43 50 59 67 70 69 69 72 74 73 73 75 73 72
8 3 6 11 14 21 31 43 41 56 40 6 9 8 12 7 6 8 6 10 7 13 20 9 30 39 46 43 44 46 50 55 61 62 61 64 65 69 72 76 75 73 71 72
Wind_Direction_850mb
332 339 344 346 352 357 0 1 18 357 357 40 49 80 67 124 72 32 35 34 5 12 0 34 59 67 187 343 309 37 338 116 143 192 256 214 176 176 141 121 230 71 139 276
325 333 339 344 351 354 358 360 354 355 4 93 37 188 110 109 97 86 53 34 35 11 16 350 14 65 38 11 38 109 237 25 44 353 0 356 215 197 143 114 97 202 146 264
317 325 333 341 347 352 352 350 10 22 46 63 127 144 195 151 163 144 140 147 90 22 33 15 262 345 353 13 64 53 53 100 160 189 204 151 227 221 182 144 139 189 226 277
310 317 324 332 342 349 355 13 86 62 330 5 27 31 176 164 180 211 187 138 152 146 110 11 83 14 343 5 7 27 70 343 39 267 252 267 253 229 194 194 198 195 216 213
301 309 321 329 339 348 359 8 4 22 83 43 42 355 256 213 294 156 269 191 197 180 169 170 176 152 168 181 18 48 4 224 89 294 18 204 264 248 232 232 242 259 265 270
295 304 313 323 333 350 9 22 10 352 0 55 54 270 261 264 30 304 320 240 48 294 260 188 200 208 168 168 156 154 95 86 28 292 344 306 281 229 207 193 205 207 242 257
287 301 312 326 330 342 3 11 349 336 276 149 203 205 37 315 327 324 338 349 341 348 13 324 317 293 290 233 323 171 148 141 141 248 5 343 251 308 225 211 256 245 292 279
285 289 306 321 331 335 326 341 4 320 283 244 257 198 182 147 249 278 257 223 231 312 346 1 5 349 40 58 11 336 337 84 94 156 196 286 150 164 147 148 299 331 270 298
291 275 290 317 326 335 327 294 304 279 297 249 245 183 197 184 217 321 203 192 201 149 76 57 252 243 237 196 107 61 81 26 90 45 204 255 352 356 227 132 276 307 134 144
271 274 272 286 304 322 334 300 278 250 265 255 211 213 192 177 164 181 267 196 163 168 124 167 214 260 222 222 185 163 137 146 187 209 281 289 264 281 271 305 274 204 271 171
260 262 257 267 273 292 304 307 278 263 259 268 245 236 222 193 195 157 156 84 227 73 162 169 228 208 242 260 170 186 172 155 193 140 191 267 219 231 200 228 182 215 270 300
253 254 254 251 256 268 282 288 275 270 254 266 258 242 240 240 237 241 193 237 171 191 102 198 136 236 173 189 270 47 234 192 185 190 215 247 237 254 284 265 244 300 294 317
250 251 247 249 248 256 266 280 268 251 270 280 269 266 256 244 234 221 222 221 212 203 204 168 188 233 134 207 240 219 241 182 221 99 273 244 284 300 290 267 276 305 301 305
246 253 245 241 242 247 254 262 260 228 252 272 284 262 246 243 238 237 241 239 228 237 209 202 189 222 193 216 229 200 220 153 218 256 278 302 300 306 333 313 314 311 299 291
242 249 257 245 234 240 249 250 241 225 208 243 275 276 268 255 245 241 239 236 231 214 186 174 212 209 175 247 306 231 202 206 211 259 277 282 289 307 310 308 305 300 290 289
257 250 253 241 234 231 227 223 237 223 216 248 258 257 241 230 222 222 227 214 219 213 192 199 201 188 187 233 230 239 235 246 254 269 288 300 299 309 317 311 310 303 292 289
257 251 249 259 233 227 202 206 234 200 198 224 258 254 218 205 203 200 208 205 209 208 196 218 199 206 194 237 246 205 261 271 285 303 303 301 307 314 314 320 323 317 300 290
263 258 244 265 227 216 209 217 191 182 186 192 220 239 198 174 159 146 171 172 186 213 204 193 206 221 223 251 269 276 313 318 311 296 302 294 292 296 300 302 298 292 293 297
264 263 243 209 194 202 203 201 182 180 189 190 198 184 195 173 138 130 141 172 193 186 226 210 176 194 226 237 249 293 329 337 320 327 321 308 290 295 305 304 299 299 304 303
271 214 176 190 171 171 176 161 171 181 199 212 218 191 161 166 144 139 131 162 206 219 226 193 222 250 260 263 270 359 3 359 2 356 341 342 315 303 300 300 302 302 300 298
193 189 157 145 156 154 176 155 167 172 211 209 194 185 145 178 128 143 212 176 185 168 251 204 254 281 254 240 180 310 26 35 26 18 0 333 316 304 299 300 297 294 298 304
204 187 136 149 171 141 172 182 160 191 221 182 165 155 137 137 141 119 173 169 90 225 144 135 261 245 258 187 184 159 160 23 337 315 305 303 299 299 297 296 299 301 302 301
175 146 148 168 171 154 204 188 224 171 164 173 155 134 135 126 122 131 130 168 213 141 185 229 227 257 243 207 196 207 222 247 268 291 308 314 309 304 297 295 294 293 291 289
191 154 134 194 192 221 198 189 164 151 150 153 144 123 136 135 112 152 154 152 198 199 226 234 245 262 243 222 213 236 250 267 277 287 306 304 302 302 298 297 298 296 294 293
141 155 194 198 210 184 208 180 137 142 149 144 122 84 112 137 129 196 131 125 215 215 227 225 110 46 1 309 272 258 269 284 294 299 299 298 295 290 290 293 300 297 292 294
126 151 153 148 154 157 152 153 134 142 139 128 118 118 137 173 146 165 196 172 221 243 213 157 27 336 338 326 314 296 289 292 295 293 291 289 290 293 295 294 290 289 292 294
97 72 145 178 145 151 145 145 147 154 148 145 131 106 194 108 104 196 211 209 219 222 183 277 316 319 318 310 304 301 297 296 296 297 298 297 298 300 299 293 292 295 295 293